W1JAB Weather Reports


time (UTC)temp
C
wind
direction
speed
KPH
gust
KPH
rain 1hr
cm
rain 24hr
cm
rain mn
cm
humidity
%
barometer
mb
20260507070328 10 292 9.7 17.7 0.00 0.53 0.00 83 1007.3
20260507065911 11 280 6.4 11.3 0.00 0.53 0.00 83 1007.0
20260507065413 11 304 3.2 8.0 0.00 0.53 0.00 84 1006.8
20260507064827 11 339 4.8 11.3 0.00 0.53 0.00 84 1007.2
20260507064325 11 272 6.4 11.3 0.00 0.53 0.00 84 1007.0
20260507063842 11 275 4.8 11.3 0.00 0.53 0.00 83 1006.7
20260507063319 11 312 4.8 14.5 0.00 0.53 0.00 83 1006.7
20260507062901 11 296 4.8 12.9 0.00 0.53 0.00 83 1006.7
20260507062403 11 310 3.2 8.0 0.00 0.53 0.00 83 1006.7
20260507061901 11 316 3.2 14.5 0.00 0.53 0.00 82 1006.7
20260507061358 11 305 6.4 14.5 0.00 0.53 0.00 82 1006.6
20260507060851 11 300 4.8 14.5 0.00 0.53 0.00 82 1006.8
20260507060323 11 301 8.0 14.5 0.00 0.53 0.00 82 1006.8
20260507055816 11 306 3.2 14.5 0.00 0.53 0.00 82 1006.8
20260507055333 11 296 4.8 14.5 0.00 0.53 0.00 82 1007.1
20260507054852 11 288 6.4 19.3 0.00 0.53 0.00 82 1007.2
20260507054414 11 313 6.4 16.1 0.00 0.53 0.00 82 1007.3
20260507053849 11 311 4.8 16.1 0.00 0.53 0.00 81 1007.2
20260507053323 11 296 8.0 16.1 0.00 0.53 0.00 82 1007.0
20260507052820 11 295 9.7 16.1 0.00 0.53 0.00 82 1007.2
20260507052318 11 261 4.8 14.5 0.00 0.53 0.00 82 1007.4
20260507051834 11 275 8.0 14.5 0.00 0.53 0.00 82 1007.3
20260507051352 11 336 4.8 16.1 0.00 0.53 0.00 82 1007.1
20260507050828 11 321 3.2 16.1 0.00 0.53 0.00 82 1006.9
20260507050325 11 313 6.4 12.9 0.00 0.53 0.00 83 1006.8
20260507045820 11 320 6.4 19.3 0.00 0.53 0.00 83 1007.1
20260507045338 12 310 6.4 19.3 0.00 0.53 0.00 83 1006.9
20260507044834 12 303 8.0 14.5 0.00 0.53 0.00 83 1006.9
20260507044417 12 282 6.4 17.7 0.00 0.53 0.00 84 1006.8
20260507043851 12 301 9.7 20.9 0.00 0.53 0.00 84 1006.8
20260507043345 12 312 8.0 20.9 0.00 0.53 0.00 85 1007.0
20260507042841 12 286 9.7 19.3 0.00 0.53 0.00 85 1007.0
20260507042318 12 267 8.0 17.7 0.00 0.53 0.00 86 1007.3
20260507041901 12 315 9.7 17.7 0.00 0.53 0.00 86 1007.2
20260507041358 12 290 8.0 14.5 0.00 0.53 0.00 87 1007.1
20260507040901 12 307 6.4 12.9 0.00 0.53 0.00 87 1006.8
20260507040422 12 325 4.8 19.3 0.00 0.53 0.00 87 1006.7
20260507035917 13 294 6.4 19.3 0.00 0.53 0.00 88 1006.6
20260507035333 13 293 6.4 17.7 0.00 0.53 0.53 88 1006.6
20260507034911 13 309 9.7 17.7 0.00 0.53 0.53 88 1006.5
20260507034414 13 270 6.4 17.7 0.00 0.53 0.53 89 1006.3
20260507033828 14 301 6.4 16.1 0.00 0.53 0.53 89 1006.3
20260507033413 14 318 4.8 12.9 0.00 0.53 0.53 89 1006.2
20260507032829 14 300 4.8 20.9 0.00 0.53 0.53 89 1006.1
20260507032327 14 302 11.3 32.2 0.00 0.53 0.53 89 1006.2
20260507031909 14 305 12.9 32.2 0.00 0.53 0.53 89 1006.1
20260507031324 15 319 14.5 22.5 0.00 0.53 0.53 89 1006.2
20260507030841 15 325 6.4 14.5 0.00 0.53 0.53 90 1005.9
20260507030338 15 253 3.2 14.5 0.00 0.53 0.53 90 1005.7
20260507025832 15 226 4.8 12.9 0.00 0.53 0.53 90 1005.7
20260507025329 15 195 4.8 12.9 0.00 0.53 0.53 90 1005.7
20260507024828 15 185 3.2 11.3 0.00 0.53 0.53 90 1005.7
20260507024345 15 262 3.2 12.9 0.00 0.53 0.53 90 1005.7
20260507023821 15 174 4.8 12.9 0.00 0.53 0.53 90 1005.7
20260507023405 15 211 4.8 14.5 0.00 0.53 0.53 90 1005.6
20260507022822 15 186 8.0 14.5 0.00 0.53 0.53 90 1005.5
20260507022335 15 173 4.8 12.9 0.00 0.53 0.53 90 1005.5
20260507021853 15 188 4.8 14.5 0.00 0.53 0.53 90 1005.7
20260507021330 15 195 8.0 14.5 0.00 0.53 0.53 90 1005.5
20260507020847 15 217 9.7 14.5 0.00 0.53 0.53 90 1005.7
20260507020341 15 170 4.8 12.9 0.00 0.53 0.53 90 1005.7
20260507015817 15 192 8.0 16.1 0.00 0.53 0.53 90 1005.7
20260507015357 15 271 6.4 16.1 0.03 0.53 0.53 90 1005.8
20260507014853 15 253 4.8 12.9 0.03 0.53 0.53 90 1006.0
20260507014352 15 182 4.8 16.1 0.03 0.53 0.53 90 1005.9
20260507013849 15 206 6.4 11.3 0.03 0.53 0.53 90 1005.9
20260507013325 15 172 8.0 14.5 0.03 0.53 0.53 90 1005.9
20260507012823 15 161 4.8 12.9 0.03 0.53 0.53 90 1005.9
20260507012339 15 190 6.4 12.9 0.03 0.53 0.53 90 1005.9
20260507011857 15 233 4.8 14.5 0.03 0.53 0.53 90 1006.0
20260507011332 15 209 6.4 16.1 0.03 0.53 0.53 90 1005.9
20260507010829 15 197 9.7 19.3 0.03 0.53 0.53 90 1006.1
20260507010322 15 177 9.7 16.1 0.03 0.53 0.53 90 1006.0
20260507005819 15 192 9.7 16.1 0.03 0.53 0.53 90 1006.0
20260507005317 15 176 4.8 16.1 0.00 0.51 0.51 90 1006.0
20260507004833 15 232 8.0 12.9 0.00 0.51 0.51 90 1005.8
20260507004330 15 195 6.4 14.5 0.00 0.51 0.51 90 1005.9
20260507003827 15 223 6.4 16.1 0.00 0.51 0.51 90 1005.9
20260507003324 15 165 6.4 17.7 0.03 0.51 0.51 90 1005.9
20260507002822 15 167 8.0 16.1 0.05 0.51 0.51 90 1005.8
20260507002319 15 195 8.0 16.1 0.08 0.51 0.51 90 1005.7
20260507001839 15 207 8.0 16.1 0.08 0.51 0.51 90 1005.7
20260507001358 15 197 9.7 16.1 0.08 0.51 0.51 90 1005.8
20260507000901 15 193 9.7 16.1 0.08 0.51 0.51 90 1005.7
20260507000335 15 178 9.7 16.1 0.10 0.51 0.51 90 1005.8
20260506235831 15 191 8.0 19.3 0.10 0.51 0.51 90 1005.8
20260506235417 15 177 8.0 19.3 0.10 0.51 0.51 90 1005.6
20260506234831 15 177 8.0 14.5 0.10 0.51 0.51 90 1005.7
20260506234348 15 209 8.0 14.5 0.10 0.51 0.51 90 1005.6
20260506233846 15 190 9.7 17.7 0.13 0.51 0.51 90 1005.8
20260506233321 15 157 11.3 17.7 0.10 0.48 0.48 90 1005.7
20260506232905 15 161 8.0 24.1 0.08 0.46 0.46 90 1005.7
20260506232318 15 191 12.9 24.1 0.05 0.43 0.43 90 1005.7
20260506231901 15 170 14.5 17.7 0.05 0.43 0.43 90 1005.8
20260506231419 15 129 12.9 16.1 0.08 0.43 0.43 90 1005.8
20260506230854 15 176 11.3 16.1 0.08 0.43 0.43 90 1006.0
20260506230327 15 185 9.7 17.7 0.05 0.41 0.41 90 1005.9
20260506225844 15 170 8.0 17.7 0.08 0.41 0.41 89 1005.9
20260506225408 15 180 9.7 17.7 0.08 0.41 0.41 90 1005.8
20260506224840 15 176 11.3 16.1 0.08 0.41 0.41 90 1006.0
20260506224316 16 168 11.3 17.7 0.08 0.41 0.41 89 1006.0
20260506223833 16 188 6.4 19.3 0.05 0.38 0.38 89 1006.0
20260506223350 16 200 11.3 19.3 0.05 0.38 0.38 89 1006.0
20260506222828 16 174 8.0 16.1 0.08 0.38 0.38 89 1006.1
20260506222326 16 146 8.0 16.1 0.08 0.38 0.38 89 1006.0
20260506221910 16 186 9.7 14.5 0.08 0.38 0.38 89 1006.3
20260506221325 16 187 8.0 19.3 0.08 0.36 0.36 89 1006.3
20260506220904 16 157 8.0 19.3 0.08 0.36 0.36 89 1006.3
20260506220318 16 132 9.7 16.1 0.08 0.36 0.36 89 1006.4
20260506215834 16 176 8.0 16.1 0.10 0.36 0.36 89 1006.3
20260506215330 16 190 9.7 22.5 0.08 0.33 0.33 88 1006.4
20260506214848 16 178 12.9 22.5 0.08 0.33 0.33 88 1006.4
20260506214344 16 182 12.9 20.9 0.10 0.33 0.33 88 1006.4
20260506213839 16 159 8.0 11.3 0.10 0.33 0.33 88 1006.5
20260506213358 16 195 8.0 12.9 0.13 0.33 0.33 88 1006.5
20260506212834 16 170 8.0 12.9 0.10 0.30 0.30 88 1006.6
20260506212332 16 171 9.7 16.1 0.10 0.30 0.30 88 1006.7
20260506211830 16 173 9.7 14.5 0.13 0.30 0.30 87 1006.8
20260506211348 16 181 9.7 16.1 0.13 0.28 0.28 87 1006.9
20260506210822 16 147 8.0 17.7 0.18 0.28 0.28 87 1006.9
20260506210318 16 159 9.7 17.7 0.18 0.28 0.28 87 1007.0
20260506205834 16 178 11.3 17.7 0.15 0.25 0.25 87 1007.0
20260506205351 16 181 8.0 14.5 0.15 0.25 0.25 86 1006.9
20260506204827 17 144 8.0 16.1 0.15 0.25 0.25 86 1007.0
20260506204344 17 189 12.9 22.5 0.15 0.23 0.23 86 1007.0
20260506203842 17 178 9.7 19.3 0.15 0.23 0.23 86 1006.9
20260506203338 17 174 11.3 19.3 0.15 0.20 0.20 85 1007.0
20260506202829 17 213 9.7 19.3 0.15 0.20 0.20 85 1006.9
20260506202327 17 246 6.4 19.3 0.15 0.18 0.18 85 1006.9
20260506201824 17 201 8.0 22.5 0.15 0.18 0.18 84 1006.8
20260506201322 17 174 9.7 22.5 0.15 0.15 0.15 84 1006.9
20260506200905 17 180 9.7 12.9 0.10 0.10 0.10 84 1006.8
20260506200318 17 182 3.2 11.3 0.10 0.10 0.10 83 1006.9
20260506195815 17 167 6.4 16.1 0.10 0.10 0.10 83 1006.6
20260506195333 17 194 6.4 16.1 0.10 0.10 0.10 83 1006.6
20260506194828 17 182 6.4 17.7 0.10 0.10 0.10 83 1006.8
20260506194347 17 178 6.4 17.7 0.08 0.08 0.08 83 1006.8
20260506193821 18 149 4.8 11.3 0.08 0.08 0.08 83 1006.7
20260506193407 18 185 4.8 6.4 0.05 0.05 0.05 82 1006.7
20260506192821 18 261 1.6 4.8 0.05 0.05 0.05 81 1007.1
20260506192340 18 263 0.0 4.8 0.03 0.03 0.03 81 1007.0
20260506191836 18 263 0.0 4.8 0.03 0.03 0.03 79 1007.1
20260506191354 19 263 1.6 4.8 0.00 0.00 0.00 76 1006.9
20260506190829 20 262 3.2 9.7 0.00 0.00 0.00 73 1007.3
20260506190344 20 303 4.8 9.7 0.00 0.00 0.00 71 1007.0
20260506185819 20 320 3.2 8.0 0.00 0.00 0.00 69 1006.8
20260506185336 20 212 1.6 11.3 0.00 0.00 0.00 68 1007.0
20260506184915 20 189 3.2 11.3 0.00 0.00 0.00 67 1006.9
20260506184352 20 182 6.4 12.9 0.00 0.00 0.00 67 1006.9
20260506183829 21 181 8.0 19.3 0.00 0.00 0.00 65 1007.0
20260506183325 21 187 9.7 27.4 0.00 0.00 0.00 63 1006.9
20260506182843 21 186 16.1 27.4 0.00 0.00 0.00 64 1006.8
20260506182339 21 170 14.5 29.0 0.00 0.00 0.00 63 1006.9
20260506181904 21 162 8.0 20.9 0.00 0.00 0.00 62 1006.8
20260506181400 22 213 9.7 19.3 0.00 0.00 0.00 60 1006.8
20260506180836 22 172 9.7 19.3 0.00 0.00 0.00 60 1006.9
20260506180353 22 295 8.0 24.1 0.00 0.00 0.00 59 1006.9
20260506175828 22 199 12.9 25.7 0.00 0.00 0.00 60 1007.0
20260506175345 22 178 14.5 32.2 0.00 0.00 0.00 58 1006.9
20260506174821 22 177 14.5 32.2 0.00 0.00 0.00 58 1006.9
20260506174337 22 228 11.3 22.5 0.00 0.00 0.00 58 1007.0
20260506173833 22 134 16.1 27.4 0.00 0.00 0.00 57 1006.9
20260506173329 23 145 14.5 27.4 0.00 0.00 0.00 58 1006.8
20260506172828 23 219 6.4 22.5 0.00 0.00 0.00 56 1006.9
20260506172345 22 160 12.9 22.5 0.00 0.00 0.00 57 1007.1
20260506171820 22 201 14.5 29.0 0.00 0.00 0.00 57 1007.2
20260506171318 22 175 8.0 33.8 0.00 0.00 0.00 57 1007.3
20260506170918 22 190 12.9 33.8 0.00 0.00 0.00 58 1007.3
20260506170352 22 194 11.3 29.0 0.00 0.00 0.00 58 1007.3
20260506165848 22 206 9.7 29.0 0.00 0.00 0.00 59 1007.4
20260506165345 22 151 12.9 24.1 0.00 0.00 0.00 60 1007.5
20260506164820 22 199 9.7 22.5 0.00 0.00 0.00 61 1007.7
20260506164338 22 221 6.4 19.3 0.00 0.00 0.00 62 1007.7
20260506163901 22 174 8.0 22.5 0.00 0.00 0.00 63 1007.7
20260506163424 22 183 12.9 24.1 0.00 0.00 0.00 62 1007.9
20260506162859 22 170 11.3 22.5 0.00 0.00 0.00 62 1007.8
20260506162355 22 180 9.7 22.5 0.00 0.00 0.00 63 1007.9
20260506161830 21 124 9.7 22.5 0.00 0.00 0.00 63 1008.1
20260506161327 21 192 11.3 27.4 0.00 0.00 0.00 64 1008.1
20260506160824 21 147 14.5 27.4 0.00 0.00 0.00 63 1008.4
20260506160357 21 158 11.3 25.7 0.00 0.00 0.00 63 1008.4
20260506155832 21 174 12.9 24.1 0.00 0.00 0.00 64 1008.5
20260506155350 21 199 16.1 25.7 0.00 0.00 0.00 63 1008.6
20260506154847 21 168 14.5 25.7 0.00 0.00 0.00 63 1008.7
20260506154346 21 126 11.3 22.5 0.00 0.00 0.00 64 1008.8
20260506153840 21 184 11.3 20.9 0.00 0.00 0.00 64 1009.0
20260506153317 21 176 14.5 25.7 0.00 0.00 0.00 64 1009.1
20260506152902 21 167 14.5 25.7 0.00 0.00 0.00 64 1009.1
20260506152318 21 201 14.5 25.7 0.00 0.00 0.00 64 1009.4
20260506151817 21 163 14.5 29.0 0.00 0.00 0.00 64 1009.0
20260506151333 21 192 9.7 19.3 0.00 0.00 0.00 64 1009.0
20260506150852 21 210 12.9 24.1 0.00 0.00 0.00 65 1009.2
20260506150413 21 157 11.3 24.1 0.00 0.00 0.00 65 1009.4
20260506145848 21 189 6.4 19.3 0.00 0.00 0.00 65 1009.4
20260506145323 21 191 9.7 19.3 0.00 0.00 0.00 66 1009.3
20260506144923 20 202 11.3 29.0 0.00 0.00 0.00 66 1009.3
20260506144358 21 144 11.3 29.0 0.00 0.00 0.00 66 1009.2
20260506143854 20 138 8.0 22.5 0.00 0.00 0.00 67 1009.2
20260506143329 20 261 6.4 24.1 0.00 0.00 0.00 66 1009.2
20260506142828 20 253 8.0 27.4 0.00 0.00 0.00 67 1009.1
20260506142344 20 165 16.1 22.5 0.00 0.00 0.00 67 1008.9
20260506141841 20 265 11.3 27.4 0.00 0.00 0.00 68 1008.9
20260506141359 20 176 9.7 27.4 0.00 0.00 0.00 69 1009.1
20260506140857 20 227 12.9 27.4 0.00 0.00 0.00 69 1009.1
20260506140331 20 165 9.7 25.7 0.00 0.00 0.00 69 1009.1
20260506135827 19 210 11.3 24.1 0.00 0.00 0.00 70 1009.0
20260506135343 19 206 14.5 24.1 0.00 0.00 0.00 70 1009.2
20260506134819 19 184 8.0 17.7 0.00 0.00 0.00 70 1009.4
20260506134403 19 203 11.3 29.0 0.00 0.00 0.00 70 1009.4
20260506133816 19 201 9.7 22.5 0.00 0.00 0.00 70 1009.5
20260506133334 19 245 11.3 22.5 0.00 0.00 0.00 70 1009.6
20260506132847 18 191 6.4 19.3 0.00 0.00 0.00 71 1009.6
20260506132323 18 257 9.7 20.9 0.00 0.00 0.00 71 1009.6
20260506131839 18 175 8.0 20.9 0.00 0.00 0.00 70 1009.5
20260506131358 18 233 9.7 27.4 0.00 0.00 0.00 70 1009.4
20260506130834 18 181 17.7 27.4 0.00 0.00 0.00 70 1009.7
20260506130330 18 189 11.3 19.3 0.00 0.00 0.00 70 1009.6
20260506125914 18 205 8.0 20.9 0.00 0.00 0.00 70 1009.7
20260506125330 18 191 9.7 20.9 0.00 0.00 0.00 71 1009.6
20260506124847 18 145 12.9 19.3 0.00 0.00 0.00 71 1009.4
20260506124322 18 154 11.3 20.9 0.00 0.00 0.00 71 1009.4
20260506123839 18 177 11.3 20.9 0.00 0.00 0.00 71 1009.6
20260506123337 18 178 8.0 20.9 0.00 0.00 0.00 71 1009.7
20260506122853 18 162 6.4 20.9 0.00 0.00 0.00 72 1009.7
20260506122330 18 202 11.3 19.3 0.00 0.00 0.00 72 1009.7
20260506121826 18 203 8.0 19.3 0.00 0.00 0.00 72 1009.8
20260506121322 18 176 6.4 19.3 0.00 0.00 0.00 72 1009.7
20260506120906 18 169 4.8 17.7 0.00 0.00 0.00 72 1009.7
20260506120337 17 169 6.4 17.7 0.00 0.00 0.00 72 1009.8
20260506115853 17 186 8.0 16.1 0.00 0.00 0.00 73 1009.8
20260506115329 17 144 11.3 24.1 0.00 0.00 0.00 73 1009.8
20260506114842 17 170 9.7 24.1 0.00 0.00 0.00 73 1009.9
20260506114407 17 172 11.3 20.9 0.00 0.00 0.00 73 1009.9
20260506113842 17 144 8.0 19.3 0.00 0.00 0.00 73 1010.0
20260506113359 17 153 9.7 17.7 0.00 0.00 0.00 73 1010.0
20260506112834 17 267 8.0 22.5 0.00 0.00 0.00 73 1010.0
20260506112352 17 191 11.3 22.5 0.00 0.00 0.00 73 1010.0
20260506111828 17 217 6.4 19.3 0.00 0.00 0.00 73 1009.9
20260506111325 17 219 8.0 17.7 0.00 0.00 0.00 73 1009.8
20260506110821 17 212 11.3 17.7 0.00 0.00 0.00 73 1010.0
20260506110338 17 183 11.3 19.3 0.00 0.00 0.00 73 1010.1
20260506105900 17 236 4.8 19.3 0.00 0.00 0.00 73 1010.2
20260506105403 17 196 9.7 19.3 0.00 0.00 0.00 73 1010.1
20260506104901 17 183 11.3 19.3 0.00 0.00 0.00 73 1010.0
20260506104336 17 164 8.0 19.3 0.00 0.00 0.00 73 1010.0
20260506103833 17 178 8.0 19.3 0.00 0.00 0.00 73 1010.0
20260506103350 17 199 9.7 20.9 0.00 0.00 0.00 73 1009.9
20260506102914 17 166 11.3 20.9 0.00 0.00 0.00 73 1010.1
20260506102330 17 186 12.9 19.3 0.00 0.00 0.00 73 1009.9
20260506101827 17 207 8.0 17.7 0.00 0.00 0.00 73 1010.0
20260506101325 17 177 8.0 17.7 0.00 0.00 0.00 73 1010.1
20260506100823 17 163 6.4 12.9 0.00 0.00 0.00 73 1010.0
20260506100318 17 196 6.4 16.1 0.00 0.00 0.00 73 1009.9
20260506095834 16 204 3.2 17.7 0.00 0.00 0.00 73 1009.8
20260506095353 16 122 9.7 20.9 0.00 0.00 0.00 73 1009.9
20260506094917 17 122 4.8 20.9 0.00 0.00 0.00 73 1009.8
20260506094352 17 186 6.4 14.5 0.00 0.00 0.00 73 1010.0
20260506093827 17 180 8.0 16.1 0.00 0.00 0.00 72 1010.1
20260506093345 17 201 4.8 16.1 0.00 0.00 0.00 72 1010.1
20260506092821 17 192 8.0 16.1 0.00 0.00 0.00 72 1010.1
20260506092340 17 189 6.4 22.5 0.00 0.00 0.00 72 1010.0
20260506091835 17 155 9.7 14.5 0.00 0.00 0.00 72 1009.9
20260506091333 17 212 4.8 17.7 0.00 0.00 0.00 71 1010.0
20260506090830 17 195 9.7 20.9 0.00 0.00 0.00 71 1010.0
20260506090326 17 173 8.0 16.1 0.00 0.00 0.00 71 1009.9
20260506085905 17 170 9.7 14.5 0.00 0.00 0.00 70 1009.9
20260506085339 17 235 4.8 27.4 0.00 0.00 0.00 70 1009.9
20260506084904 17 224 14.5 27.4 0.00 0.00 0.00 70 1009.9
20260506084406 17 181 4.8 19.3 0.00 0.00 0.00 70 1009.9
20260506083835 17 186 8.0 19.3 0.00 0.00 0.00 70 1009.8
20260506083332 17 199 8.0 17.7 0.00 0.00 0.00 69 1010.0
20260506082850 17 194 4.8 17.7 0.00 0.00 0.00 69 1009.9
20260506082346 17 146 6.4 17.7 0.00 0.00 0.00 69 1009.9
20260506081842 17 215 8.0 17.7 0.00 0.00 0.00 69 1009.8
20260506081338 17 224 9.7 17.7 0.00 0.00 0.00 68 1009.8
20260506080855 17 232 9.7 17.7 0.00 0.00 0.00 68 1009.9
20260506080328 17 170 8.0 24.1 0.00 0.00 0.00 68 1009.7
20260506073322 18 134 9.7 19.3 0.00 0.00 0.00 67 1009.4
20260506072906 18 170 6.4 17.7 0.00 0.00 0.00 66 1009.5
20260506072321 18 156 3.2 25.7 0.00 0.00 0.00 66 1009.4
20260506071907 18 180 11.3 25.7 0.00 0.00 0.00 66 1009.5
20260506071322 18 212 6.4 19.3 0.00 0.00 0.00 66 1009.2
20260506070906 18 201 8.0 19.3 0.00 0.00 0.00 65 1009.3